Location: *
(55.6049°S, 142.1985°W)
Time: 04:18:31
(UTC+00:00)

USA 229 - Pass Details

Date: 12 May 2021
Orbit: 955 x 1257 km, 63.4° (Epoch: 17 June)

Event Time Altitude Azimuth Distance (km) Brightness Sun altitude
Exits shadow 13:59:38 50° 225° (SW) 1,342 3.9 -27.0°
Maximum altitude 14:01:39 83° 143° (SE) 1,069 3.6 -26.8°
Drops below altitude 10° 14:08:12 10° 54° (NE) 2,777 6.5 -25.8°
Sets 14:10:42 0° 53° (NE) 3,694 7.2 -25.5°
